Location: Allos
(44.2333°N, 6.6333°E)
Time: 11:32:53
(UTC+00:00)

ERS-2 - Pass Details

Date: 01 December 2020
Orbit: 492 x 498 km, 98.6° (Epoch: 25 January)

Event Time Altitude Azimuth Distance (km) Brightness Sun altitude
Exits shadow 18:10:20 16° 346° (NNW) 1,363 4.4 -23.4°
Maximum altitude 18:12:39 32° 291° (WNW) 888 3.8 -23.8°
Drops below altitude 10° 18:15:55 10° 228° (SW) 1,699 5.5 -24.4°
Sets 18:18:07 0° 218° (SW) 2,577 6.4 -24.8°
